TimeEDT,TemperatureF,Dew PointF,Humidity,Sea Level PressureIn,VisibilityMPH,Wind Direction,Wind SpeedMPH,Gust SpeedMPH,PrecipitationIn,Events,Conditions,WindDirDegrees,DateUTC
12:53 AM,66.9,64.9,93,30.02,6.0,Calm,Calm,-,N/A,,Clear,0,2013-08-03 04:53:00
1:53 AM,64.9,64.0,97,30.02,6.0,Calm,Calm,-,N/A,,Clear,0,2013-08-03 05:53:00
2:53 AM,66.0,64.0,93,30.01,6.0,Calm,Calm,-,N/A,,Clear,0,2013-08-03 06:53:00
3:53 AM,64.9,63.0,93,30.01,5.0,Calm,Calm,-,N/A,,Clear,0,2013-08-03 07:53:00
4:53 AM,64.0,63.0,96,30.01,5.0,Calm,Calm,-,N/A,,Clear,0,2013-08-03 08:53:00
5:31 AM,62.6,62.6,100,30.04,6.0,Calm,Calm,-,N/A,,Partly Cloudy,0,2013-08-03 09:31:00
5:53 AM,64.0,62.1,93,30.01,7.0,Calm,Calm,-,N/A,,Partly Cloudy,0,2013-08-03 09:53:00
6:53 AM,64.0,62.1,93,30.01,6.0,Calm,Calm,-,N/A,,Scattered Clouds,0,2013-08-03 10:53:00
6:59 AM,64.4,62.6,94,30.05,1.2,Calm,Calm,-,N/A,,Mostly Cloudy,0,2013-08-03 10:59:00
7:02 AM,64.4,62.6,94,30.05,0.2,Calm,Calm,-,N/A,Fog,Fog,0,2013-08-03 11:02:00
7:40 AM,64.4,64.4,100,30.05,1.0,Calm,Calm,-,N/A,,Mist,0,2013-08-03 11:40:00
7:43 AM,66.2,64.4,94,30.05,2.0,Calm,Calm,-,N/A,,Scattered Clouds,0,2013-08-03 11:43:00
7:53 AM,66.9,66.0,97,30.02,4.0,Calm,Calm,-,N/A,,Partly Cloudy,0,2013-08-03 11:53:00
8:53 AM,70.0,68.0,93,30.04,8.0,Calm,Calm,-,N/A,,Clear,0,2013-08-03 12:53:00
9:53 AM,78.1,70.0,76,30.06,10.0,Calm,Calm,-,N/A,,Clear,0,2013-08-03 13:53:00
10:53 AM,80.1,66.9,64,30.05,10.0,Calm,Calm,-,N/A,,Clear,0,2013-08-03 14:53:00
11:53 AM,82.0,68.0,62,30.06,10.0,Variable,3.5,-,N/A,,Clear,0,2013-08-03 15:53:00
12:53 PM,82.9,68.0,60,30.06,10.0,Variable,3.5,-,N/A,,Clear,0,2013-08-03 16:53:00
1:53 PM,84.9,69.1,59,30.05,10.0,Variable,4.6,-,N/A,,Partly Cloudy,0,2013-08-03 17:53:00
2:53 PM,84.9,69.1,59,30.04,10.0,Calm,Calm,-,N/A,,Partly Cloudy,0,2013-08-03 18:53:00
3:53 PM,84.0,70.0,63,30.04,9.0,Calm,Calm,-,N/A,,Mostly Cloudy,0,2013-08-03 19:53:00
4:53 PM,82.9,70.0,65,30.01,8.0,Calm,Calm,-,N/A,,Scattered Clouds,0,2013-08-03 20:53:00
5:53 PM,82.9,72.0,69,30.01,8.0,Calm,Calm,-,N/A,,Mostly Cloudy,0,2013-08-03 21:53:00
6:53 PM,82.0,72.0,71,30.00,8.0,Calm,Calm,-,N/A,,Clear,0,2013-08-03 22:53:00
7:53 PM,81.0,72.0,74,30.00,8.0,Calm,Calm,-,N/A,,Mostly Cloudy,0,2013-08-03 23:53:00
8:53 PM,75.9,73.9,94,30.01,7.0,Calm,Calm,-,N/A,,Clear,0,2013-08-04 00:53:00
9:53 PM,75.0,73.0,94,30.00,5.0,Calm,Calm,-,N/A,,Clear,0,2013-08-04 01:53:00
10:53 PM,75.9,73.0,91,30.02,6.0,Calm,Calm,-,N/A,,Clear,0,2013-08-04 02:53:00
11:53 PM,75.0,73.0,94,30.03,5.0,Calm,Calm,-,N/A,,Partly Cloudy,0,2013-08-04 03:53:00